DECAYED

STARLINK-1189, 45221 (Decayed)

Orbit data source: Space-Track

STARLINK-1189, 45221 was a payload satellite owned by SpaceX/Seattle (US) in LEO that was launched on Mon, 17 Feb 2020 UTC via an FALCON 9 launch vehicle from the Air Force Eastern Test Range (AFETR). Payload-class satellites include a variety of spacecraft equipped with specific instruments for various scientific and technological missions. These include communications satellites like Starlink; space stations such as the ISS; scientific satellites like the Hubble; Earth observation satellites from companies like Planet Labs, Umbra, and HawkEye 360; GPS; miniature CubeSats for education and research; and military/defense satellites.

Not visible in the next 10 days
Identifier
45221, 2020-012AV
Orbit
Decayed
Country
Flag of USUS
Related business
Manufacturer
SpaceX/Seattle
Mission
Decayed Commercial Communications
Bus & Motor
STARLINK, Unknown motor
Mass
260 kg wet, ~248 kg dry
Launch date (UTC)
2020-02-17 (7 years ago)
Launch vehicle
FALCON 9
Launch site
Air Force Eastern Test Range (AFETR)
Object type
Payload
Rocket body
Debris
Shape & HBR
Box + 1 Pan, 10.1 m
Radar Cross Section
13.562 m², Large (>1 m²)

Expand to show TLE details & history
Last TLE update: 1 year ago

TLE from 1 year ago
0 STARLINK-1189
1 45221U 20012AV  25091.24170257  .15995317  11994-4  48687-2 0  9997
2 45221  53.0398  50.5722 0002750  74.2339  67.0295 16.26109859283589
Epoch: 2025-04-01T05:48Z
TLE epoch observation values (Epoch: 2025-04-01T05:48:03.102Z)
Latitude
30.07627°
Longitude
-71.96244°
Altitude
204.01 km
Speed
7.789 km/s
True Right ascension
13h 39m 35s
True Declination
29° 54' 53"
Sunlit
Object was in full shadow at epoch
Visualization orbit readout
Latitude
Unknown
Longitude
Unknown
Altitude
Unknown
Speed
Unknown
Apparent Right ascension
Unknown
Apparent Declination
Unknown
Sunlit
N/A
Visualization observer readout
Local Sidereal Time
21:27:10
Azimuth
Unknown
Elevation
Unknown
Doppler factor
Unknown
Orbital elements
Apogee altitude
205.112 km
Perigee altitude
201.492 km
Semi-major axis
6,581.439 km
Eccentricity
0.00028
Inclination
53.0398°
RAAN
50.5722°
Arg. of periapsis
74.2339°
True anomaly
67.05852°
Mean anomaly
67.0295°
Eccentric anomaly
67.04401°
Mean motion
4.06501 °/min
Orbital period
88.56 mins
BSTAR
0.0048687
Loading maneuver chart data...
Computing Atmospheric mass density...

Documentation

Showing up to 5 results
|